User: anonymous   Login
Location: Cactus School
(34.5700°N, 118.0931°W)
Time: 20:22:04
(UTC-07:00)
Language:

Courier 1B - Orbit

View from above orbital plane
View from above orbital plane
View from above satellite
View from above satellite

Ground track
Ground track

The orbit data is extracted from the following two-line orbital elements,

1 00058U 60013A   24112.50727675  .00000154  00000-0  10194-3 0  9990
2 00058  28.3261 171.3185 0164781 173.8397 186.4215 13.46372653127960
Epoch (UTC): 21 April 2024 12:10:28
Eccentricity: 0.0164781
inclination: 28.3261°
perigee height: 962 km
apogee height: 1208 km
right ascension of ascending node: 171.3185°
argument of perigee: 173.8397°
revolutions per day: 13.46372653
mean anomaly at epoch: 186.4215°
orbit number at epoch: 12796

The dashed part of the orbit path shows where the satellite is in the earth's shadow,  

DLR